This is the latest recevied weather packets stored in our database for station/object W0VI. If no packets are shown the sender has not sent any weather packets the latest 10 day(s).
| Time | Temp. | Humidity | Pressure | Rain* | Wind** | Luminosity | Snow |
|---|---|---|---|---|---|---|---|
| 1777817060 | 15.56° C | 48% | 1006.9 hPa | 0 mm | - | 368 W/m² | - |
| 1777816756 | 15.56° C | 49% | 1006.5 hPa | 0 mm | - | 365 W/m² | - |
| 1777816454 | 15° C | 49% | 1006.5 hPa | 0 mm | - | 331 W/m² | - |
| 1777816151 | 15° C | 50% | 1006.7 hPa | 0 mm | - | 324 W/m² | - |
| 1777815843 | 15° C | 51% | 1006.4 hPa | 0 mm | - | 304 W/m² | - |
| 1777815540 | 14.44° C | 51% | 1006.5 hPa | 0 mm | - | 288 W/m² | - |
| 1777815238 | 14.44° C | 52% | 1006.6 hPa | 0 mm | - | 267 W/m² | - |
| 1777814933 | 14.44° C | 53% | 1006.1 hPa | 0 mm | - | 251 W/m² | - |
| 1777814630 | 13.89° C | 54% | 1006.3 hPa | 0 mm | - | 245 W/m² | - |
| 1777814327 | 13.89° C | 54% | 1006.2 hPa | 0 mm | - | 228 W/m² | - |
| 1777814023 | 13.33° C | 55% | 1006.1 hPa | 0 mm | - | 219 W/m² | - |
| 1777813722 | 13.33° C | 55% | 1006.1 hPa | 0 mm | - | 194 W/m² | - |
| 1777813419 | 12.78° C | 55% | 1006.3 hPa | 0 mm | - | 194 W/m² | - |
| 1777813116 | 12.78° C | 56% | 1005.8 hPa | 0 mm | - | 167 W/m² | - |
| 1777812814 | 12.22° C | 57% | 1005.8 hPa | 0 mm | - | 130 W/m² | - |
| 1777812510 | 12.22° C | 57% | 1005.6 hPa | 0 mm | - | 55 W/m² | - |
| 1777812208 | 12.22° C | 57% | 1005.8 hPa | 0 mm | - | 123 W/m² | - |
| 1777811906 | 11.67° C | 57% | 1005.8 hPa | 0 mm | - | 79 W/m² | - |
| 1777811605 | 11.67° C | 57% | 1005.7 hPa | 0 mm | - | 106 W/m² | - |
| 1777811305 | 11.67° C | 57% | 1005.6 hPa | 0 mm | - | 87 W/m² | - |
| 1777811003 | 11.67° C | 56% | 1005.6 hPa | 0 mm | - | 60 W/m² | - |
| 1777810700 | 11.67° C | 56% | 1005.5 hPa | 0 mm | - | 62 W/m² | - |
| 1777810396 | 11.11° C | 56% | 1005.5 hPa | 0 mm | - | 53 W/m² | - |
| 1777810092 | 11.11° C | 56% | 1005.4 hPa | 0 mm | - | 49 W/m² | - |
| 1777809790 | 11.11° C | 56% | 1005.1 hPa | 0 mm | - | 35 W/m² | - |
* Rain latest hour (hover to see other rain measurements)
** Current wind speed in m/s (hover to see current wind gust speed)